EW2725 Weather Reports


Display with metric or nautical units.
time (UTC)temp
F
wind
direction
speed
MPH
gust
MPH
rain 1hr
in
rain 24hr
in
rain mn
in
humidity
%
barometer
mb
20260510194630 60 146 5.0 0.0 0.00 0.00 0.00 80 1100.1
20260510194504 63 0 0.0 0.0 0.00 0.13 0.01 78 1012.8
20260510194005 64 0 0.0 0.0 0.00 0.13 0.01 78 1012.9
20260510193136 61 236 5.0 0.0 0.00 0.00 0.00 78 1100.1
20260510192504 64 0 0.0 0.0 0.00 0.13 0.01 77 1012.8
20260510191505 62 219 3.0 0.0 0.00 0.00 0.00 78 1100.1
20260510191005 65 0 0.0 0.0 0.00 0.13 0.01 77 1012.7
20260510190137 61 223 6.0 0.0 0.00 0.00 0.00 78 1100.1
20260510185005 63 0 0.0 0.0 0.00 0.13 0.01 80 1013.0
20260510184634 61 221 5.0 0.0 0.00 0.00 0.00 79 1100.1
20260510184005 63 0 0.0 0.0 0.01 0.13 0.01 79 1013.0
20260510183006 64 0 0.0 0.0 0.01 0.13 0.01 80 1013.0
20260510183003 63 238 5.0 0.0 0.00 0.00 0.00 78 1100.1
20260510181509 64 237 5.0 0.0 0.00 0.00 0.00 75 1100.1
20260510181506 66 0 0.0 0.0 0.01 0.13 0.01 77 1013.3
20260510181006 66 0 0.0 0.0 0.01 0.13 0.01 76 1013.3
20260510180506 66 0 0.0 0.0 0.01 0.13 0.01 76 1013.1
20260510180110 64 232 6.0 0.0 0.00 0.00 0.00 73 1100.1
20260510180006 66 0 0.0 0.0 0.01 0.13 0.01 74 1013.2
20260510175506 67 0 0.0 0.0 0.01 0.13 0.01 73 1013.1
20260510174502 65 220 5.0 0.0 0.00 0.00 0.00 73 1100.1
20260510174006 68 0 0.0 0.0 0.00 0.12 0.00 73 1013.0
20260510173007 65 236 6.0 0.0 0.00 0.00 0.00 74 1100.1
20260510172506 68 0 0.0 0.0 0.00 0.12 0.00 73 1012.9
20260510171506 68 0 0.0 0.0 0.00 0.12 0.00 74 1012.8
20260510171501 65 237 5.0 0.0 0.00 0.00 0.00 73 1100.1
20260510170506 67 0 0.0 0.0 0.00 0.12 0.00 73 1013.0
20260510170006 64 234 5.0 0.0 0.00 0.00 0.00 74 1100.1
20260510165507 67 0 0.0 0.0 0.00 0.12 0.00 73 1013.0
20260510164506 66 0 0.0 0.0 0.00 0.12 0.00 76 1013.1
20260510164503 63 232 4.0 0.0 0.00 0.00 0.00 77 1100.1
20260510164006 65 0 0.0 0.0 0.00 0.12 0.00 77 1013.3
20260510163002 61 220 4.0 0.0 0.00 0.00 0.00 79 1100.1
20260510162007 64 0 0.0 0.0 0.00 0.12 0.00 79 1013.5
20260510161638 60 219 5.0 0.0 0.00 0.00 0.00 80 1100.1
20260510161007 63 0 0.0 0.0 0.00 0.12 0.00 81 1013.7
20260510160129 59 217 6.0 0.0 0.00 0.00 0.00 82 1100.1
20260510155506 61 0 0.0 0.0 0.00 0.12 0.00 81 1013.7
20260510154616 60 224 4.0 0.0 0.00 0.00 0.00 80 1100.1
20260510154006 63 0 0.0 0.0 0.00 0.12 0.00 80 1013.8
20260510153506 63 0 0.0 0.0 0.00 0.12 0.00 80 1013.7
20260510153121 61 213 6.0 0.0 0.00 0.00 0.00 81 1100.1
20260510153006 62 0 0.0 0.0 0.00 0.12 0.00 83 1013.8
20260510151623 61 232 4.0 0.0 0.00 0.00 0.00 80 1100.1
20260510151006 61 0 0.0 0.0 0.00 0.12 0.00 83 1013.7
20260510150126 60 232 3.0 0.0 0.00 0.00 0.00 80 1100.1
20260510145506 61 0 0.0 0.0 0.00 0.12 0.00 84 1013.6
20260510144506 61 0 0.0 0.0 0.00 0.12 0.00 85 1013.7
20260510144006 60 0 0.0 0.0 0.00 0.12 0.00 86 1013.8
20260510143003 59 232 5.0 0.0 0.00 0.00 0.00 82 1100.1
20260510141637 58 232 3.0 0.0 0.00 0.00 0.00 84 1100.1
20260510140506 58 0 0.0 0.0 0.00 0.12 0.00 88 1013.9
20260510140135 57 232 5.0 0.0 0.00 0.00 0.00 84 1100.1
20260510134616 58 234 5.0 0.0 0.00 0.00 0.00 84 1100.1
20260510133109 58 190 4.0 0.0 0.00 0.00 0.00 84 1100.1
20260510133006 58 0 0.0 0.0 0.00 0.12 0.00 89 1012.8
20260510132506 58 0 0.0 0.0 0.00 0.12 0.00 89 1012.8
20260510131623 58 227 3.0 0.0 0.00 0.00 0.00 85 1100.1
20260510130506 57 0 0.0 0.0 0.00 0.12 0.00 90 1012.8
20260510130114 57 168 5.0 0.0 0.00 0.00 0.00 86 1100.1
20260510130006 57 0 0.0 0.0 0.00 0.12 0.00 90 1012.9
20260510125006 57 0 0.0 0.0 0.00 0.12 0.00 91 1013.0
20260510124522 57 232 3.0 0.0 0.00 0.00 0.00 86 1100.1
20260510124506 57 0 0.0 0.0 0.00 0.12 0.00 91 1013.0
20260510124006 57 0 0.0 0.0 0.00 0.12 0.00 92 1013.0
20260510123013 57 232 2.0 0.0 0.00 0.00 0.00 87 1100.1
20260510123006 56 0 0.0 0.0 0.00 0.12 0.00 92 1012.9
20260510122006 56 0 0.0 0.0 0.00 0.12 0.00 93 1013.2
20260510121611 56 232 3.0 0.0 0.00 0.00 0.00 88 1100.1
20260510120024 56 232 2.0 0.0 0.00 0.00 0.00 89 1100.1
20260510115509 56 0 0.0 0.0 0.00 0.13 0.00 95 1013.2
20260510115006 55 0 0.0 0.0 0.00 0.13 0.00 95 1013.3
20260510114630 55 232 3.0 0.0 0.00 0.00 0.00 89 1100.1
20260510114506 55 0 0.0 0.0 0.00 0.13 0.00 95 1013.3
20260510113506 55 0 0.0 0.0 0.00 0.13 0.00 95 1013.3
20260510113017 55 232 2.0 0.0 0.00 0.00 0.00 90 1100.1
20260510112007 55 0 0.0 0.0 0.00 0.13 0.00 95 1013.3
20260510111620 55 232 1.0 0.0 0.00 0.00 0.00 90 1100.1
20260510111007 54 0 0.0 0.0 0.00 0.14 0.00 95 1013.2
20260510110121 54 232 2.0 0.0 0.00 0.00 0.00 91 1100.1
20260510105006 54 0 0.0 0.0 0.00 0.14 0.00 95 1013.2
20260510104501 54 232 1.0 0.0 0.00 0.00 0.00 91 1100.1
20260510104006 54 0 0.0 0.0 0.00 0.14 0.00 95 1013.1
20260510103506 54 0 0.0 0.0 0.00 0.14 0.00 95 1013.2
20260510103135 54 232 2.0 0.0 0.00 0.00 0.00 91 1100.1
20260510102005 54 0 0.0 0.0 0.00 0.14 0.00 95 1013.0
20260510101634 54 232 1.0 0.0 0.00 0.00 0.00 91 1100.1
20260510101505 54 0 0.0 0.0 0.00 0.14 0.00 94 1012.9
20260510100506 54 0 0.0 0.0 0.00 0.14 0.00 94 1012.8
20260510100133 54 232 1.0 0.0 0.00 0.00 0.00 91 1100.1
20260510100006 54 0 0.0 0.0 0.00 0.14 0.00 94 1012.8
20260510095506 54 0 0.0 0.0 0.00 0.14 0.00 95 1012.9
20260510095006 54 0 0.0 0.0 0.00 0.14 0.00 94 1012.8
20260510094627 54 232 0.0 0.0 0.00 0.00 0.00 91 1100.1
20260510093506 54 0 0.0 0.0 0.00 0.14 0.00 94 1012.6
20260510093002 54 232 0.0 0.0 0.00 0.00 0.00 90 1100.1
20260510092006 54 0 0.0 0.0 0.00 0.14 0.00 94 1012.5
20260510091635 54 232 1.0 0.0 0.00 0.00 0.00 90 1100.1
20260510091006 54 0 0.0 0.0 0.00 0.14 0.00 94 1012.3
20260510090129 53 232 0.0 0.0 0.00 0.00 0.00 90 1100.1
20260510085506 54 0 0.0 0.0 0.00 0.14 0.00 94 1012.4
20260510085006 54 0 0.0 0.0 0.00 0.14 0.00 94 1012.3
20260510084619 53 232 0.0 0.0 0.00 0.00 0.00 90 1100.1
20260510083506 54 0 0.0 0.0 0.00 0.14 0.00 94 1012.3
20260510083109 53 232 1.0 0.0 0.00 0.00 0.00 90 1100.1
20260510082506 54 0 0.0 0.0 0.00 0.14 0.00 94 1012.3
20260510082006 54 0 0.0 0.0 0.00 0.14 0.00 94 1012.4
20260510081515 54 232 2.0 0.0 0.00 0.00 0.00 90 1100.1
20260510081506 54 0 0.0 0.0 0.00 0.14 0.00 94 1012.4
20260510080506 54 0 0.0 0.0 0.00 0.14 0.00 94 1012.3
20260510080108 54 232 1.0 0.0 0.00 0.00 0.00 90 1100.1
20260510080006 54 0 0.0 0.0 0.00 0.14 0.00 94 1012.3
20260510075505 54 0 0.0 0.0 0.00 0.14 0.00 94 1012.2
20260510075006 54 0 0.0 0.0 0.00 0.14 0.00 94 1012.2
20260510074607 54 232 2.0 0.0 0.00 0.00 0.00 90 1100.1
20260510074505 54 0 0.0 0.0 0.00 0.14 0.00 94 1012.1
20260510073018 54 232 2.0 0.0 0.00 0.00 0.00 90 1100.1
20260510072505 54 0 0.0 0.0 0.00 0.14 0.00 94 1012.0
20260510072006 54 0 0.0 0.0 0.00 0.14 0.00 94 1011.9
20260510071603 54 232 2.0 0.0 0.00 0.00 0.00 90 1100.1
20260510071507 54 0 0.0 0.0 0.00 0.14 0.00 94 1012.0
20260510071006 54 0 0.0 0.0 0.00 0.14 0.00 94 1011.9
20260510070506 54 0 0.0 0.0 0.00 0.14 0.00 94 1011.8
20260510070010 54 232 2.0 0.0 0.00 0.00 0.00 90 1100.1
20260510065006 54 0 0.0 0.0 0.00 0.14 0.00 94 1011.8
20260510064507 54 232 2.0 0.0 0.00 0.00 0.00 90 1100.1
20260510063505 54 359 0.0 0.0 0.00 0.14 0.00 94 1011.8
20260510063112 54 232 3.0 0.0 0.00 0.00 0.00 90 1100.1
20260510063006 54 358 0.0 0.0 0.00 0.14 0.00 94 1011.8
20260510062006 54 0 0.0 0.0 0.00 0.14 0.00 94 1011.9
20260510061605 54 223 2.0 0.0 0.00 0.00 0.00 89 1100.1
20260510061505 54 359 0.0 0.0 0.00 0.14 0.00 94 1011.9
20260510060019 54 223 4.0 0.0 0.00 0.00 0.00 89 1100.1
20260510055006 54 359 0.0 0.0 0.00 0.14 0.00 94 1011.8
20260510054613 54 238 3.0 0.0 0.00 0.00 0.00 89 1100.1
20260510054506 54 0 0.0 0.0 0.00 0.14 0.00 94 1011.8
20260510053114 54 238 4.0 0.0 0.00 0.00 0.00 89 1100.1
20260510051608 55 238 4.0 0.0 0.00 0.00 0.00 89 1100.1
20260510050108 54 217 3.0 0.0 0.00 0.00 0.00 89 1100.1
20260510050005 54 0 0.0 0.0 0.00 0.14 0.00 94 1011.7
20260510044507 54 182 4.0 0.0 0.00 0.00 0.00 89 1100.1
20260510043505 54 0 0.0 0.0 0.00 0.14 0.00 94 1011.9
20260510043101 54 193 4.0 0.0 0.00 0.00 0.18 89 1100.1
20260510043006 54 0 0.0 0.0 0.00 0.14 0.00 94 1012.0
20260510041511 54 220 4.0 0.0 0.00 0.00 0.18 88 1100.1
20260510041505 53 0 0.0 0.0 0.00 0.14 0.00 94 1012.0
20260510040124 54 222 5.0 0.0 0.00 0.00 0.18 89 1100.1
20260510034554 53 216 2.0 0.0 0.00 0.00 0.18 89 1100.1
20260510034505 52 359 0.0 0.0 0.01 0.14 0.14 94 1011.5
20260510033506 52 0 0.0 0.0 0.01 0.14 0.14 94 1011.9
20260510033112 52 273 1.0 0.0 0.00 0.00 0.18 88 1100.1
20260510033006 52 0 0.0 0.0 0.01 0.14 0.14 94 1011.8
20260510032006 51 0 0.0 0.0 0.01 0.14 0.14 94 1011.9
20260510031616 52 273 1.0 0.0 0.00 0.00 0.18 88 1100.1
20260510030506 51 0 0.0 0.0 0.01 0.14 0.14 94 1012.2
20260510030114 52 273 1.0 0.0 0.00 0.00 0.17 88 1100.1
20260510030006 51 0 0.0 0.0 0.01 0.14 0.14 94 1012.3
20260510025506 51 0 0.0 0.0 0.00 0.13 0.13 94 1012.2
20260510024618 51 273 1.0 0.0 0.00 0.00 0.17 88 1100.1
20260510024006 51 0 0.0 0.0 0.00 0.13 0.13 93 1012.6
20260510023113 51 286 1.0 0.0 0.00 0.00 0.17 88 1100.1
20260510023007 51 0 0.0 0.0 0.01 0.13 0.13 93 1012.5
20260510022506 51 0 0.0 0.0 0.01 0.13 0.13 93 1012.8
20260510022006 51 0 0.0 0.0 0.01 0.13 0.13 93 1013.0
20260510021619 51 277 1.0 0.0 0.00 0.00 0.17 89 1100.1
20260510021506 51 0 0.0 0.0 0.01 0.13 0.13 93 1013.1
20260510021006 51 0 0.0 0.0 0.01 0.13 0.13 93 1013.2
20260510020506 51 0 0.0 0.0 0.02 0.13 0.13 93 1013.1
20260510020124 51 134 1.0 0.0 0.00 0.00 0.17 89 1100.1
20260510014644 51 143 2.0 0.0 0.00 0.00 0.16 89 1100.1
20260510013007 52 131 1.0 0.0 0.00 0.00 0.16 89 1100.1
20260510012506 52 358 0.0 0.0 0.03 0.12 0.12 93 1013.8
20260510011506 52 0 0.0 0.0 0.04 0.12 0.12 93 1013.8
20260510011501 52 212 1.0 0.0 0.00 0.00 0.15 89 1100.1
20260510010105 52 186 3.0 0.0 0.00 0.00 0.15 89 1100.1
20260510005506 52 0 0.0 0.0 0.04 0.11 0.11 93 1014.2
20260510004513 52 140 2.0 0.0 0.00 0.00 0.13 89 1100.1
20260510004006 53 0 0.0 0.0 0.03 0.09 0.09 92 1014.1
20260510003023 52 210 3.0 0.0 0.00 0.00 0.12 89 1100.1
20260510002505 53 0 0.0 0.0 0.03 0.09 0.09 92 1014.1
20260510002006 53 0 0.0 0.0 0.04 0.09 0.09 92 1014.0
20260510001513 53 217 2.0 0.0 0.00 0.00 0.11 89 1100.1
20260510000506 53 0 0.0 0.0 0.04 0.08 0.08 92 1014.1
20260510000108 53 215 2.0 0.0 0.00 0.00 0.10 89 1100.1
20260510000006 54 358 0.0 0.0 0.03 0.07 0.07 92 1014.1
20260509235505 54 0 0.0 0.0 0.04 0.07 0.07 92 1014.2
20260509234612 53 262 0.0 0.0 0.00 0.00 0.09 88 1100.1
20260509234506 54 0 0.0 0.0 0.04 0.07 0.07 91 1014.0
20260509234006 54 0 0.0 0.0 0.03 0.06 0.06 91 1014.0
20260509233508 54 0 0.0 0.0 0.03 0.06 0.06 91 1014.1
20260509233115 54 262 1.0 0.0 0.00 0.00 0.09 88 1100.1
20260509233006 54 0 0.0 0.0 0.03 0.06 0.06 91 1013.8
20260509231620 54 262 1.0 0.0 0.00 0.00 0.08 87 1100.1
20260509231006 54 0 0.0 0.0 0.02 0.05 0.05 90 1013.8
20260509230506 54 0 0.0 0.0 0.01 0.04 0.04 90 1013.8
20260509230122 54 262 3.0 0.0 0.00 0.00 0.06 86 1100.1
20260509225506 54 0 0.0 0.0 0.00 0.03 0.03 90 1013.6
20260509225006 54 0 0.0 0.0 0.01 0.03 0.03 90 1013.8
20260509224618 54 236 2.0 0.0 0.00 0.00 0.05 85 1100.1
20260509224506 54 0 0.0 0.0 0.01 0.03 0.03 89 1013.7
20260509223506 54 0 0.0 0.0 0.01 0.03 0.03 89 1013.5
20260509223118 54 236 1.0 0.0 0.00 0.00 0.05 85 1100.1
20260509221620 54 237 3.0 0.0 0.00 0.00 0.05 85 1100.1
20260509221506 54 0 0.0 0.0 0.01 0.03 0.03 88 1013.3
20260509220130 54 240 4.0 0.0 0.00 0.00 0.05 84 1100.1
20260509215506 55 0 0.0 0.0 0.01 0.03 0.03 86 1013.3
20260509214502 55 222 5.0 0.0 0.00 0.00 0.04 82 1100.1
20260509213006 57 0 0.0 0.0 0.00 0.02 0.02 82 1013.0
20260509213004 56 225 5.0 0.0 0.00 0.00 0.03 79 1100.1
20260509211559 57 229 4.0 0.0 0.00 0.00 0.03 75 1100.1
20260509211006 58 0 0.0 0.0 0.00 0.02 0.02 78 1012.7
20260509210505 58 0 0.0 0.0 0.00 0.02 0.02 77 1012.6
20260509210015 58 225 4.0 0.0 0.00 0.00 0.03 74 1100.1
20260509204611 58 231 5.0 0.0 0.00 0.00 0.03 74 1100.1
20260509204005 58 0 0.0 0.0 0.00 0.02 0.02 79 1012.8
20260509203115 57 233 5.0 0.0 0.00 0.00 0.03 75 1100.1
20260509202505 57 0 0.0 0.0 0.00 0.02 0.02 79 1012.9
20260509202005 57 0 0.0 0.0 0.00 0.02 0.02 80 1013.0
20260509201627 57 217 5.0 0.0 0.00 0.00 0.03 76 1100.1
20260509201505 57 0 0.0 0.0 0.00 0.02 0.02 80 1013.0
20260509200505 57 0 0.0 0.0 0.00 0.02 0.02 80 1013.1
20260509200137 57 223 5.0 0.0 0.00 0.00 0.03 77 1100.1
20260509195505 57 0 0.0 0.0 0.00 0.02 0.02 79 1013.0
20260509195005 58 0 0.0 0.0 0.00 0.02 0.02 79 1013.1